FW1090 Weather Reports


time (UTC)temp
C
wind
direction
speed
KPH
gust
KPH
rain 1hr
cm
rain 24hr
cm
rain mn
cm
humidity
%
barometer
mb
20260507134537 8 244 0.0 0.0 0.00 0.00 0.00 90 1003.6
20260507133036 8 242 0.0 0.0 0.00 0.00 0.00 90 1003.8
20260507131539 8 231 0.0 0.0 0.00 0.00 0.00 90 1003.6
20260507130039 8 166 0.0 0.0 0.00 0.00 0.00 91 1003.6
20260507124539 8 165 0.0 0.0 0.00 0.00 0.00 91 1003.7
20260507123032 8 125 0.0 0.0 0.00 0.00 0.00 91 1003.9
20260507121530 9 109 0.0 1.6 0.00 0.00 0.00 90 1003.8
20260507120029 9 143 0.0 0.0 0.00 0.00 0.00 89 1004.1
20260507114541 9 248 0.0 0.0 0.00 0.00 0.00 89 1004.2
20260507113048 9 248 0.0 0.0 0.00 0.00 0.00 89 1004.2
20260507111535 9 185 0.0 0.0 0.00 0.00 0.00 89 1004.2
20260507110024 9 204 0.0 0.0 0.00 0.00 0.00 89 1004.3
20260507104532 9 202 0.0 0.0 0.00 0.00 0.00 89 1004.3
20260507103025 9 205 0.0 0.0 0.00 0.00 0.00 89 1004.4
20260507101524 10 198 0.0 0.0 0.00 0.00 0.00 89 1004.3
20260507100020 10 249 0.0 0.0 0.00 0.00 0.00 89 1004.4
20260507094520 10 214 0.0 0.0 0.00 0.00 0.00 89 1004.3
20260507093019 10 227 0.0 0.0 0.00 0.00 0.00 90 1004.4
20260507091518 10 232 0.0 0.0 0.00 0.00 0.00 90 1004.4
20260507090017 10 234 0.0 0.0 0.00 0.00 0.00 90 1004.3
20260507084515 10 239 0.0 4.8 0.00 0.00 0.00 90 1004.3
20260507083015 10 212 0.0 1.6 0.00 0.00 0.00 90 1004.4
20260507081516 10 182 0.0 0.0 0.00 0.00 0.00 91 1004.4
20260507080012 10 231 0.0 4.8 0.00 0.00 0.00 91 1004.4
20260507074510 10 248 0.0 4.8 0.00 0.00 0.00 91 1004.4
20260507073008 10 235 0.0 0.0 0.00 0.00 0.00 91 1004.3
20260507071505 10 233 0.0 0.0 0.00 0.00 0.00 90 1004.1
20260507070009 11 230 0.0 0.0 0.00 0.00 0.00 90 1004.2
20260507064501 11 240 0.0 0.0 0.00 0.00 0.00 90 1004.2
20260507063104 11 240 0.0 0.0 0.00 0.00 0.00 90 1004.2
20260507061601 11 239 0.0 0.0 0.00 0.00 0.00 90 1004.2
20260507060105 11 248 0.0 0.0 0.00 0.00 0.00 91 1004.3
20260507054600 11 247 0.0 0.0 0.00 0.00 0.00 91 1004.3
20260507053058 11 248 0.0 0.0 0.00 0.00 0.00 91 1004.4
20260507051557 11 247 0.0 0.0 0.00 0.00 0.00 91 1004.2
20260507050056 11 247 0.0 0.0 0.00 0.00 0.00 91 1004.2
20260507044609 11 247 0.0 0.0 0.00 0.00 0.00 91 1004.2
20260507043104 11 252 0.0 0.0 0.00 0.00 0.00 91 1004.2
20260507041557 11 249 0.0 0.0 0.00 0.00 0.00 91 1004.2
20260507040052 11 249 0.0 0.0 0.00 0.00 0.00 91 1004.1
20260507034554 11 249 0.0 0.0 0.00 0.00 0.00 91 1004.0
20260507033052 11 249 0.0 0.0 0.00 0.00 0.00 91 1003.9
20260507031550 12 249 0.0 0.0 0.00 0.00 0.00 90 1003.8
20260507030050 12 324 0.0 0.0 0.00 0.00 0.00 90 1003.6
20260507024553 12 330 0.0 0.0 0.00 0.00 0.00 90 1003.7
20260507023103 12 43 0.0 0.0 0.00 0.00 0.00 90 1003.5
20260507021550 12 317 0.0 0.0 0.00 0.00 0.00 90 1003.5
20260507020056 12 316 0.0 0.0 0.00 0.00 0.00 89 1003.5
20260507014547 12 44 0.0 0.0 0.00 0.00 0.00 89 1003.5
20260507013046 12 65 0.0 0.0 0.00 0.00 0.00 89 1003.5
20260507011548 12 43 0.0 0.0 0.00 0.00 0.00 89 1003.5
20260507010047 12 47 0.0 0.0 0.00 0.00 0.00 88 1003.6
20260507004545 12 24 0.0 0.0 0.00 0.00 0.00 88 1003.6
20260507003046 12 64 0.0 0.0 0.00 0.00 0.00 87 1003.6
20260507001607 12 72 0.0 0.0 0.00 0.00 0.00 87 1003.7
20260507000044 12 26 0.0 0.0 0.00 0.00 0.00 87 1003.6
20260506234548 13 288 0.0 0.0 0.00 0.00 0.00 88 1003.6
20260506233042 12 53 0.0 0.0 0.00 0.00 0.00 87 1003.7
20260506231543 13 258 0.0 0.0 0.00 0.00 0.00 88 1003.7
20260506230052 13 296 1.6 12.9 0.00 0.00 0.00 87 1003.7
20260506224539 13 221 0.0 0.0 0.00 0.00 0.00 87 1003.6
20260506223037 13 250 0.0 0.0 0.00 0.00 0.00 88 1003.7
20260506221536 12 302 0.0 0.0 0.00 0.00 0.00 88 1004.1
20260506220036 12 264 0.0 1.6 0.00 0.00 0.00 89 1004.0
20260506214533 12 278 0.0 0.0 0.00 0.00 0.00 89 1004.0
20260506213033 12 243 0.0 0.0 0.00 0.00 0.00 89 1004.0
20260506211530 12 255 0.0 0.0 0.00 0.00 0.00 90 1004.1
20260506210047 12 228 0.0 0.0 0.00 0.00 0.00 91 1004.0
20260506204527 12 200 0.0 0.0 0.00 0.00 0.00 92 1004.1
20260506203026 11 243 0.0 0.0 0.00 0.00 0.00 92 1003.9
20260506201526 11 308 0.0 0.0 0.00 0.00 0.00 92 1003.9
20260506200024 11 237 0.0 0.0 0.00 0.00 0.00 91 1003.8
20260506194527 11 226 0.0 0.0 0.00 0.00 0.00 91 1003.8
20260506193033 11 266 0.0 3.2 0.00 0.00 0.00 91 1003.8
20260506191522 11 225 0.0 1.6 0.00 0.00 0.00 92 1003.8
20260506190024 11 252 0.0 0.0 0.00 0.00 0.00 92 1003.8
20260506184529 11 245 0.0 0.0 0.00 0.00 0.00 92 1003.7
20260506183020 11 245 0.0 0.0 0.00 0.00 0.00 92 1003.5
20260506181529 11 262 0.0 0.0 0.00 0.00 0.00 93 1003.6
20260506180018 11 290 0.0 0.0 0.00 0.00 0.00 93 1003.6
20260506174519 11 258 0.0 0.0 0.00 0.00 0.00 94 1003.6
20260506173018 11 304 0.0 6.4 0.00 0.00 0.00 94 1003.5
20260506171515 11 280 0.0 8.0 0.00 0.00 0.00 94 1003.5
20260506170025 11 263 0.0 0.0 0.00 0.00 0.00 95 1003.3
20260506164535 10 190 0.0 0.0 0.00 0.00 0.00 95 1003.2
20260506163014 10 146 0.0 0.0 0.00 0.00 0.00 95 1003.0
20260506161512 10 266 0.0 0.0 0.00 0.00 0.00 95 1003.3
20260506160011 11 271 0.0 0.0 0.00 0.00 0.00 95 1003.3
20260506154512 10 230 0.0 0.0 0.00 0.00 0.00 95 1003.0
20260506153012 10 276 0.0 0.0 0.00 0.00 0.00 95 1003.2
20260506151514 10 272 0.0 3.2 0.00 0.00 0.00 96 1003.2
20260506150009 10 287 0.0 0.0 0.00 0.00 0.00 96 1002.9
20260506144516 10 216 0.0 0.0 0.00 0.00 0.00 96 1002.4
20260506143007 10 246 0.0 4.8 0.00 0.00 0.00 95 1002.9
20260506141521 10 257 0.0 0.0 0.00 0.00 0.00 95 1003.0
20260506140006 10 247 0.0 4.8 0.00 0.00 0.00 95 1002.9